| time (UTC) | temp F | wind direction | speed MPH | gust MPH | rain 1hr in | rain 24hr in | rain mn in | humidity % | barometer mb |
| 20260504050014 | 47 | 221 | 5.0 | 11.0 | 0.01 | 0.02 | 0.01 | 88 | 1007.5 |
| 20260504044510 | 47 | 238 | 6.0 | 16.0 | 0.01 | 0.01 | 0.00 | 87 | 1007.8 |
| 20260504043008 | 47 | 239 | 10.0 | 18.0 | 0.01 | 0.01 | 0.00 | 88 | 1007.9 |
| 20260504041509 | 47 | 243 | 9.0 | 17.0 | 0.01 | 0.01 | 0.00 | 89 | 1008.2 |
| 20260504040002 | 47 | 243 | 6.0 | 11.0 | 0.01 | 0.01 | 0.01 | 88 | 1008.2 |
| 20260504034501 | 47 | 249 | 3.0 | 9.0 | 0.00 | 0.00 | 0.00 | 86 | 1008.2 |
| 20260504033100 | 47 | 254 | 6.0 | 11.0 | 0.00 | 0.00 | 0.00 | 85 | 1008.2 |
| 20260504031558 | 47 | 252 | 5.0 | 12.0 | 0.00 | 0.00 | 0.00 | 84 | 1008.3 |
| 20260504030057 | 47 | 233 | 7.0 | 15.0 | 0.00 | 0.00 | 0.00 | 83 | 1008.4 |
| 20260504024615 | 47 | 200 | 10.0 | 16.0 | 0.00 | 0.00 | 0.00 | 81 | 1008.5 |
| 20260504023056 | 47 | 248 | 8.0 | 17.0 | 0.00 | 0.00 | 0.00 | 79 | 1008.4 |
| 20260504021555 | 46 | 233 | 10.0 | 17.0 | 0.00 | 0.00 | 0.00 | 77 | 1008.6 |
| 20260504020056 | 46 | 190 | 7.0 | 15.0 | 0.00 | 0.00 | 0.00 | 78 | 1008.6 |
| 20260504014604 | 45 | 179 | 6.0 | 11.0 | 0.00 | 0.00 | 0.00 | 77 | 1008.6 |
| 20260504013056 | 45 | 208 | 4.0 | 8.0 | 0.00 | 0.00 | 0.00 | 76 | 1008.6 |
| 20260504011552 | 45 | 204 | 3.0 | 7.0 | 0.00 | 0.00 | 0.00 | 72 | 1008.7 |
| 20260504010055 | 45 | 204 | 3.0 | 6.0 | 0.00 | 0.00 | 0.00 | 71 | 1008.6 |
| 20260504004551 | 46 | 184 | 3.0 | 5.0 | 0.00 | 0.00 | 0.00 | 70 | 1008.6 |
| 20260504003054 | 47 | 211 | 6.0 | 11.0 | 0.00 | 0.00 | 0.00 | 62 | 1008.9 |
| 20260504001550 | 48 | 217 | 7.0 | 12.0 | 0.00 | 0.00 | 0.00 | 58 | 1008.6 |
| 20260504000116 | 48 | 225 | 8.0 | 13.0 | 0.00 | 0.00 | 0.00 | 56 | 1008.5 |
| 20260503234554 | 48 | 248 | 7.0 | 15.0 | 0.00 | 0.00 | 0.00 | 55 | 1008.5 |
| 20260503233047 | 48 | 225 | 7.0 | 12.0 | 0.00 | 0.00 | 0.00 | 53 | 1008.5 |
| 20260503231546 | 49 | 237 | 9.0 | 15.0 | 0.00 | 0.00 | 0.00 | 51 | 1008.5 |
| 20260503230046 | 50 | 238 | 7.0 | 13.0 | 0.00 | 0.00 | 0.00 | 50 | 1008.6 |
| 20260503224545 | 51 | 247 | 8.0 | 14.0 | 0.00 | 0.00 | 0.00 | 48 | 1008.5 |
| 20260503223044 | 51 | 159 | 6.0 | 16.0 | 0.00 | 0.00 | 0.00 | 47 | 1008.5 |
| 20260503221550 | 52 | 225 | 11.0 | 20.0 | 0.00 | 0.00 | 0.00 | 42 | 1008.6 |
| 20260503220042 | 53 | 222 | 7.0 | 21.0 | 0.00 | 0.00 | 0.00 | 41 | 1008.6 |
| 20260503214543 | 52 | 264 | 13.0 | 22.0 | 0.00 | 0.00 | 0.00 | 40 | 1008.7 |
| 20260503213038 | 52 | 236 | 11.0 | 21.0 | 0.00 | 0.00 | 0.00 | 41 | 1008.8 |
| 20260503211539 | 52 | 219 | 9.0 | 17.0 | 0.00 | 0.00 | 0.00 | 52 | 1008.8 |
| 20260503210036 | 52 | 225 | 13.0 | 22.0 | 0.00 | 0.00 | 0.00 | 49 | 1008.9 |
| 20260503204533 | 51 | 223 | 11.0 | 21.0 | 0.00 | 0.00 | 0.00 | 53 | 1009.1 |
| 20260503203041 | 51 | 243 | 13.0 | 22.0 | 0.00 | 0.00 | 0.00 | 51 | 1009.3 |
| 20260503201534 | 51 | 243 | 11.0 | 22.0 | 0.00 | 0.00 | 0.00 | 52 | 1009.3 |
| 20260503200028 | 51 | 239 | 14.0 | 25.0 | 0.00 | 0.00 | 0.00 | 49 | 1009.5 |
| 20260503194526 | 51 | 226 | 13.0 | 23.0 | 0.00 | 0.00 | 0.00 | 48 | 1009.8 |
| 20260503193025 | 51 | 228 | 9.0 | 23.0 | 0.00 | 0.00 | 0.00 | 47 | 1009.9 |
| 20260503191522 | 51 | 251 | 9.0 | 19.0 | 0.00 | 0.00 | 0.00 | 47 | 1010.2 |
| 20260503190021 | 51 | 266 | 12.0 | 23.0 | 0.00 | 0.00 | 0.00 | 45 | 1010.3 |
| 20260503184522 | 50 | 216 | 12.0 | 22.0 | 0.00 | 0.00 | 0.00 | 43 | 1010.5 |
| 20260503183020 | 50 | 231 | 13.0 | 23.0 | 0.00 | 0.00 | 0.00 | 43 | 1010.6 |
| 20260503181517 | 51 | 212 | 13.0 | 23.0 | 0.00 | 0.00 | 0.00 | 45 | 1010.7 |
| 20260503180024 | 51 | 257 | 11.0 | 18.0 | 0.00 | 0.00 | 0.00 | 47 | 1010.7 |
| 20260503174516 | 51 | 292 | 8.0 | 15.0 | 0.00 | 0.00 | 0.00 | 45 | 1010.8 |
| 20260503173023 | 50 | 225 | 10.0 | 18.0 | 0.00 | 0.00 | 0.00 | 43 | 1010.9 |
| 20260503171509 | 50 | 233 | 7.0 | 18.0 | 0.00 | 0.00 | 0.00 | 48 | 1011.0 |
| 20260503081517 | 40 | 316 | 2.0 | 7.0 | 0.00 | 0.00 | 0.00 | 72 | 1012.7 |
| 20260503071503 | 41 | 271 | 3.0 | 8.0 | 0.00 | 0.00 | 0.00 | 73 | 1012.6 |
| 20260503060109 | 41 | 266 | 3.0 | 8.0 | 0.00 | 0.00 | 0.00 | 75 | 1012.9 |
| 20260503054603 | 41 | 256 | 2.0 | 4.0 | 0.00 | 0.00 | 0.00 | 77 | 1012.8 |
| 20260503053053 | 40 | 226 | 3.0 | 7.0 | 0.00 | 0.00 | 0.00 | 81 | 1012.9 |
| 20260503051551 | 40 | 255 | 3.0 | 6.0 | 0.00 | 0.00 | 0.00 | 83 | 1013.0 |